INTELSAT 39 (IS-39) (44476 NORAD) Tracking and Keplerian Element Data

This shows tracking and keplerian element data for the satellite.

Feedback or suggestion? Click here.




ElementValue
Catalog44476
NameINTELSAT 39 (IS-39)
Epoch Orbit77
Epoch Day291.72023375
Epoch Year2019
RAAN205.0067
Inclination0.0113
Eccentricity5.39E-05
Argument of Perigee105.403
Mean Anonmoly37.7557
Mean Motion1.00272343
Decay Rate3.5E-07
L11 44476U 19049B 19291.72023375 .00000035 00000-0 00000+0 0 9996
L22 44476 0.0113 205.0067 0000539 105.4030 37.7557 1.00272343 772

Live tracking and technical data element details for INTELSAT 39 (IS-39) (NORAD 44476). INTELSAT 39 (IS-39) can be tracked NOW for your location showing map with azimuth and elevation plus other details from your city location.

Track the satellite on the map from your city or location and see movement details for azimuth, elevation, latitude, longitude, range, height, and movement on the map or in text.







IsCatalogInMostPopularTable: catalog: 44476, numindb: 19
Update: records affected: 1



GetName: 44476 INTELSAT 39 (IS-39)

Hit Count: updated at: Wed, 23 Oct 2019 00:21:26 GMT